Hourly Weather Bolsunovo

Today, 23 July, Friday

Time Temperature Precipitation Wind Pressure Humidity
00:00 +13°C° 0 mm 2 mps 738 mmHg 77%
01:00 +12°C° 0 mm 3 mps 737 mmHg 75%
02:00 +12°C° 0 mm 3 mps 737 mmHg 74%
03:00 +13°C° 0 mm 3 mps 737 mmHg 73%
04:00 +14°C° 0 mm 4 mps 736 mmHg 71%
05:00 +14°C° 0 mm 4 mps 736 mmHg 70%
06:00 +15°C° 0 mm 4 mps 736 mmHg 67%
07:00 +16°C° 0 mm 5 mps 736 mmHg 65%
08:00 +17°C° 0 mm 5 mps 736 mmHg 63%
09:00 +19°C° 0 mm 5 mps 736 mmHg 59%
10:00 +20°C° 0 mm 5 mps 736 mmHg 54%
11:00 +21°C° 0 mm 6 mps 736 mmHg 49%
12:00 +21°C° 0 mm 5 mps 736 mmHg 50%
13:00 +21°C° 0 mm 5 mps 736 mmHg 50%
14:00 +21°C° 0 mm 5 mps 736 mmHg 51%
15:00 +20°C° 0.1 mm 5 mps 736 mmHg 55%
16:00 +19°C° 0.1 mm 4 mps 736 mmHg 59%
17:00 +19°C° 0.1 mm 4 mps 736 mmHg 63%
18:00 +18°C° 0 mm 3 mps 737 mmHg 65%
19:00 +17°C° 0 mm 3 mps 737 mmHg 68%
20:00 +16°C° 0 mm 2 mps 737 mmHg 70%
21:00 +15°C° 0 mm 2 mps 737 mmHg 74%
22:00 +13°C° 0 mm 2 mps 738 mmHg 78%
23:00 +12°C° 0 mm 2 mps 738 mmHg 82%

Tomorrow, 24 July, Saturday

Time Temperature Precipitation Wind Pressure Humidity
00:00 +12°C° 0 mm 2 mps 738 mmHg 84%
01:00 +10°C° 0 mm 2 mps 739 mmHg 87%
02:00 +9°C° 0 mm 2 mps 739 mmHg 89%
03:00 +10°C° 0 mm 2 mps 739 mmHg 86%
04:00 +10°C° 0 mm 2 mps 740 mmHg 83%
05:00 +10°C° 0 mm 2 mps 740 mmHg 81%
06:00 +13°C° 0 mm 2 mps 740 mmHg 73%
07:00 +14°C° 0 mm 2 mps 741 mmHg 66%
08:00 +16°C° 0 mm 2 mps 741 mmHg 58%
09:00 +17°C° 0 mm 3 mps 741 mmHg 52%
10:00 +19°C° 0 mm 3 mps 741 mmHg 45%
11:00 +20°C° 0 mm 3 mps 742 mmHg 39%
12:00 +20°C° 0 mm 2 mps 742 mmHg 37%
13:00 +21°C° 0 mm 2 mps 742 mmHg 36%
14:00 +23°C° 0 mm 2 mps 742 mmHg 34%
15:00 +21°C° 0 mm 2 mps 742 mmHg 38%
16:00 +21°C° 0 mm 2 mps 742 mmHg 42%
17:00 +20°C° 0 mm 2 mps 742 mmHg 45%
18:00 +19°C° 0 mm 2 mps 743 mmHg 50%
19:00 +19°C° 0 mm 1 mps 743 mmHg 54%
20:00 +16°C° 0 mm 1 mps 743 mmHg 58%
21:00 +16°C° 0 mm 1 mps 743 mmHg 60%
22:00 +15°C° 0 mm 1 mps 744 mmHg 61%
23:00 +14°C° 0 mm 2 mps 744 mmHg 63%

Day after tomorrow, 25 July, Sunday

Time Temperature Precipitation Wind Pressure Humidity
00:00 +14°C° 0 mm 1 mps 744 mmHg 64%
01:00 +14°C° 0 mm 1 mps 744 mmHg 64%
02:00 +14°C° 0 mm 1 mps 744 mmHg 65%
03:00 +14°C° 0 mm 1 mps 745 mmHg 67%
04:00 +14°C° 0 mm 1 mps 745 mmHg 68%
05:00 +14°C° 0 mm 1 mps 745 mmHg 70%
06:00 +15°C° 0 mm 1 mps 745 mmHg 64%
07:00 +18°C° 0 mm 1 mps 746 mmHg 58%
08:00 +20°C° 0 mm 1 mps 746 mmHg 51%
09:00 +21°C° 0 mm 1 mps 746 mmHg 46%
10:00 +23°C° 0 mm 1 mps 746 mmHg 41%
11:00 +24°C° 0 mm 1 mps 746 mmHg 36%
12:00 +24°C° 0 mm 1 mps 746 mmHg 35%
13:00 +25°C° 0 mm 1 mps 746 mmHg 34%
14:00 +26°C° 0 mm 1 mps 746 mmHg 33%
15:00 +25°C° 0 mm 1 mps 746 mmHg 35%
16:00 +25°C° 0 mm 1 mps 746 mmHg 37%
17:00 +25°C° 0 mm 1 mps 746 mmHg 39%
18:00 +23°C° 0 mm 1 mps 746 mmHg 45%
19:00 +21°C° 0 mm 1 mps 747 mmHg 51%
20:00 +18°C° 0 mm 2 mps 747 mmHg 58%
21:00 +17°C° 0 mm 2 mps 747 mmHg 59%
22:00 +18°C° 0 mm 1 mps 747 mmHg 61%
23:00 +16°C° 0 mm 1 mps 747 mmHg 63%

26 July, Monday

Time Temperature Precipitation Wind Pressure Humidity
00:00 +16°C° 0 mm 2 mps 747 mmHg 64%
01:00 +15°C° 0 mm 2 mps 748 mmHg 65%
02:00 +15°C° 0 mm 2 mps 748 mmHg 67%
03:00 +15°C° 0 mm 2 mps 748 mmHg 68%
04:00 +15°C° 0 mm 2 mps 748 mmHg 69%
05:00 +15°C° 0 mm 2 mps 748 mmHg 70%
06:00 +17°C° 0 mm 2 mps 748 mmHg 64%
07:00 +20°C° 0 mm 2 mps 748 mmHg 58%
08:00 +23°C° 0 mm 2 mps 748 mmHg 52%
09:00 +24°C° 0 mm 2 mps 748 mmHg 47%
10:00 +26°C° 0 mm 2 mps 748 mmHg 43%
11:00 +27°C° 0 mm 3 mps 748 mmHg 38%
12:00 +27°C° 0 mm 3 mps 748 mmHg 38%
13:00 +27°C° 0 mm 3 mps 748 mmHg 37%
14:00 +27°C° 0 mm 3 mps 748 mmHg 36%
15:00 +27°C° 0 mm 2 mps 748 mmHg 40%
16:00 +26°C° 0 mm 2 mps 748 mmHg 45%
17:00 +26°C° 0 mm 2 mps 748 mmHg 49%
18:00 +24°C° 0 mm 2 mps 748 mmHg 53%
19:00 +23°C° 0 mm 2 mps 748 mmHg 58%
20:00 +20°C° 0 mm 2 mps 748 mmHg 62%
21:00 +20°C° 0 mm 2 mps 748 mmHg 63%
22:00 +20°C° 0 mm 2 mps 748 mmHg 64%
23:00 +19°C° 0 mm 2 mps 748 mmHg 66%

27 July, Tuesday

Time Temperature Precipitation Wind Pressure Humidity
00:00 +19°C° 0 mm 2 mps 748 mmHg 68%
01:00 +18°C° 0 mm 2 mps 748 mmHg 71%
02:00 +18°C° 0 mm 2 mps 748 mmHg 74%
03:00 +18°C° 0 mm 2 mps 748 mmHg 75%
04:00 +19°C° 0 mm 1 mps 748 mmHg 75%
05:00 +18°C° 0 mm 1 mps 748 mmHg 76%
06:00 +20°C° 0 mm 1 mps 748 mmHg 68%
07:00 +22°C° 0 mm 1 mps 748 mmHg 61%
08:00 +24°C° 0 mm 1 mps 748 mmHg 54%
09:00 +25°C° 0 mm 2 mps 748 mmHg 48%
10:00 +27°C° 0 mm 2 mps 748 mmHg 43%
11:00 +28°C° 0 mm 2 mps 748 mmHg 37%
12:00 +28°C° 0 mm 2 mps 747 mmHg 36%
13:00 +29°C° 0 mm 2 mps 747 mmHg 34%
14:00 +29°C° 0 mm 3 mps 747 mmHg 32%
15:00 +29°C° 0 mm 2 mps 747 mmHg 36%
16:00 +28°C° 0 mm 2 mps 746 mmHg 39%
17:00 +28°C° 0 mm 2 mps 746 mmHg 42%
18:00 +26°C° 0 mm 2 mps 746 mmHg 47%
19:00 +24°C° 0 mm 2 mps 746 mmHg 53%
20:00 +20°C° 0 mm 2 mps 746 mmHg 58%
21:00 +20°C° 0 mm 2 mps 745 mmHg 61%
22:00 +19°C° 0 mm 2 mps 745 mmHg 63%
23:00 +18°C° 0 mm 2 mps 745 mmHg 66%

28 July, Wednesday

Time Temperature Precipitation Wind Pressure Humidity
00:00 +17°C° 0 mm 2 mps 745 mmHg 67%
01:00 +17°C° 0 mm 2 mps 745 mmHg 69%
02:00 +16°C° 0 mm 2 mps 745 mmHg 70%
03:00 +17°C° 0 mm 2 mps 745 mmHg 73%
04:00 +17°C° 0 mm 2 mps 744 mmHg 75%
05:00 +17°C° 0 mm 2 mps 744 mmHg 78%
06:00 +19°C° 0 mm 3 mps 744 mmHg 72%
07:00 +21°C° 0 mm 3 mps 744 mmHg 66%
08:00 +25°C° 0 mm 4 mps 744 mmHg 60%
09:00 +25°C° 0 mm 4 mps 744 mmHg 61%
10:00 +25°C° 0 mm 5 mps 743 mmHg 61%
11:00 +25°C° 0 mm 5 mps 743 mmHg 62%
12:00 +23°C° 0.3 mm 5 mps 743 mmHg 67%
13:00 +21°C° 0.3 mm 5 mps 743 mmHg 72%
14:00 +20°C° 0.3 mm 5 mps 742 mmHg 77%
15:00 +20°C° 0.1 mm 5 mps 742 mmHg 76%
16:00 +20°C° 0.1 mm 5 mps 741 mmHg 74%
17:00 +20°C° 0.1 mm 5 mps 741 mmHg 73%
18:00 +19°C° 0.1 mm 5 mps 741 mmHg 77%
19:00 +18°C° 0.1 mm 4 mps 740 mmHg 82%
20:00 +17°C° 0.1 mm 3 mps 740 mmHg 87%
21:00 +17°C° 0 mm 3 mps 739 mmHg 88%
22:00 +17°C° 0 mm 2 mps 739 mmHg 90%
23:00 +18°C° 0 mm 1 mps 739 mmHg 92%
Show more

We Need Your Consent

Meteoprog and our Service Providers may store and access personal data such as cookies, device identifiers or other similar technologies on your device and process such data to personalise content and ads, as well as provide social media features and to analyse the traffic.

  • Store and/or access information on your device

    Cookies, device identifiers or other information can be stored or accessed on your device for the purposes indicated above.

  • Personalised ads and content, ad and content measurement, audience insights, and products development

    Ads and content can be personalised based on a profile. More data can be added to better personalise ads and content. Ad and content performance can be measured. Insights about the audience who saw the ads and content can be derived. Such data can be used to develop or improve user’s experience, systems and software.

By clicking ‘I Agree’ you will allow the use of indicated cookies, device identifiers, web beacons or other similar technologies. Your settings can be changed in the browser on your device.

For certain purposes, legitimate interests may be relied on, rather than consent. You can read more about this in our Privacy and Cookie Policy.